NVS-01 (IRNSS-1J)

Last updated on Sun Apr 12 2026 00:02:56 GMT+0000 (Coordinated Universal Time)

1 56759U 23076A 26101.49141918 -.00000337 00000+0 00000+0 0 9999 2 56759 2.3269 247.1951 0005638 49.9818 208.9475 1.00276360 10445
UTC large
Height (km)
Speed (km/s)
/
Latitude / Longitude
Inclination (degrees)
Orbital Period (minutes)
Azimuth
Elevation
Range (km)
Doppler Factor

Next 0 passes for location: London (51.5072 / 0.1276)

Sorry there are no passes over London.
NVS-01 (IRNSS-1J)